Location: American Medical Response
(33.3472°N, 96.5511°W)
Time: 10:49:14
(UTC+00:00)

H-2A R/B - Pass Details

Date: 11 July 2022
Orbit: 577 x 651 km, 98.5° (Epoch: 07 August)

Event Time Altitude Azimuth Distance (km) Brightness Sun altitude
Rises 02:02:25 0° 25° (NNE) 2,967 5.6 -5.2°
Reaches altitude 10° 02:04:52 10° 36° (NE) 2,057 4.7 -5.7°
Maximum altitude 02:08:49 30° 98° (E) 1,164 3.0 -6.4°
Drops below altitude 10° 02:12:45 10° 160° (SSE) 2,047 4.3 -7.1°
Sets 02:15:10 0° 170° (S) 2,949 5.1 -7.5°
